Tracking 18844 objects as of 21-Nov-2017
HD Live streaming from Space Station
objects crossing your sky now

SPACEWAY 1

Track SPACEWAY 1 now!
SPACEWAY 1 is classified as:


NORAD ID: 28644
Int'l Code: 2005-015A
Perigee: 35,791.8 km
Apogee: 35,795.6 km
Inclination: 0.0 °
Period: 1,436.1 minutes
Semi major axis: 42164 km
RCS: 5.0118 m2 (large)
Launch date: April 26, 2005
Source: United States (US)
Launch site: SEA LAUNCH (SEAL)

17 Ku-band transponders; high definition.
aabbcc
Your satellite tracking list
Your tracking list is empty




NASA's NSSDC Master Catalog

Two Line Element Set (TLE):
1 28644U 05015A   17324.58660413 -.00000099 +00000-0 +00000-0 0  9994
2 28644 000.0326 165.3357 0000451 291.9569 070.7601 01.00271816015191
Source of the keplerian elements: AFSPC